Location: New Mesquite
(33.1168°N, 96.4336°W)
Time: 16:34:08
(UTC+00:00)

Cosmos 1538 Rocket - Pass Details

Date: 09 July 2022
Orbit: 752 x 791 km, 74.0° (Epoch: 10 August)

Event Time Altitude Azimuth Distance (km) Brightness Sun altitude
Exits shadow 09:50:46 19° 187° (S) 1,738 5.4 -16.9°
Maximum altitude 09:54:29 74° 105° (ESE) 794 4.1 -16.3°
Drops below altitude 10° 09:59:39 10° 21° (NNE) 2,288 7.4 -15.5°
Sets 10:02:01 0° 19° (NNE) 3,213 8.3 -15.1°
